TimeEDT,TemperatureF,Dew PointF,Humidity,Sea Level PressureIn,VisibilityMPH,Wind Direction,Wind SpeedMPH,Gust SpeedMPH,PrecipitationIn,Events,Conditions,WindDirDegrees,DateUTC
12:15 AM,41.0,35.6,81,30.36,10.0,ENE,8.1,-,N/A,,Clear,60,2013-10-29 04:15:00
12:35 AM,39.2,33.8,81,30.36,10.0,ENE,8.1,-,N/A,,Clear,70,2013-10-29 04:35:00
12:55 AM,39.2,33.8,81,30.36,10.0,East,6.9,-,N/A,,Clear,80,2013-10-29 04:55:00
1:15 AM,37.4,33.8,87,30.36,10.0,ENE,6.9,-,N/A,,Clear,60,2013-10-29 05:15:00
1:35 AM,35.6,32.0,87,30.36,10.0,ENE,5.8,-,N/A,,Clear,60,2013-10-29 05:35:00
1:55 AM,35.6,32.0,87,30.36,10.0,ENE,4.6,-,N/A,,Clear,60,2013-10-29 05:55:00
2:15 AM,35.6,32.0,87,30.36,10.0,ENE,5.8,-,N/A,,Clear,70,2013-10-29 06:15:00
2:35 AM,35.6,32.0,87,30.36,10.0,ENE,5.8,-,N/A,,Clear,70,2013-10-29 06:35:00
2:55 AM,35.6,32.0,87,30.36,10.0,ENE,4.6,-,N/A,,Clear,70,2013-10-29 06:55:00
3:15 AM,33.8,32.0,93,30.36,10.0,NE,4.6,-,N/A,,Clear,50,2013-10-29 07:15:00
3:35 AM,33.8,32.0,93,30.37,10.0,ENE,5.8,-,N/A,,Scattered Clouds,70,2013-10-29 07:35:00
3:55 AM,33.8,32.0,93,30.37,10.0,ENE,5.8,-,N/A,,Scattered Clouds,70,2013-10-29 07:55:00
4:15 AM,35.6,32.0,87,30.37,10.0,ENE,6.9,-,N/A,,Mostly Cloudy,60,2013-10-29 08:15:00
4:35 AM,35.6,32.0,87,30.37,10.0,ENE,5.8,-,N/A,,Overcast,70,2013-10-29 08:35:00
4:55 AM,35.6,32.0,87,30.38,10.0,ENE,4.6,-,N/A,,Overcast,70,2013-10-29 08:55:00
5:15 AM,35.6,32.0,87,30.37,10.0,ENE,5.8,-,N/A,,Mostly Cloudy,60,2013-10-29 09:15:00
5:35 AM,33.8,30.2,87,30.37,10.0,ENE,6.9,-,N/A,,Scattered Clouds,70,2013-10-29 09:35:00
5:55 AM,33.8,30.2,87,30.37,10.0,ENE,5.8,-,N/A,,Clear,60,2013-10-29 09:55:00
6:15 AM,33.8,30.2,87,30.37,10.0,ENE,5.8,-,N/A,,Clear,70,2013-10-29 10:15:00
6:35 AM,33.8,32.0,93,30.38,10.0,ENE,6.9,-,N/A,,Clear,70,2013-10-29 10:35:00
6:55 AM,33.8,32.0,93,30.38,10.0,ENE,6.9,-,N/A,,Clear,60,2013-10-29 10:55:00
7:15 AM,33.8,30.2,87,30.38,10.0,ENE,6.9,-,N/A,,Clear,60,2013-10-29 11:15:00
7:35 AM,33.8,30.2,87,30.38,10.0,ENE,5.8,-,N/A,,Clear,70,2013-10-29 11:35:00
7:55 AM,33.8,30.2,87,30.37,10.0,East,4.6,-,N/A,,Clear,80,2013-10-29 11:55:00
8:15 AM,32.0,30.2,93,30.38,10.0,East,4.6,-,N/A,,Clear,80,2013-10-29 12:15:00
8:35 AM,32.0,30.2,93,30.38,10.0,ENE,4.6,-,N/A,,Clear,70,2013-10-29 12:35:00
8:55 AM,33.8,32.0,93,30.39,10.0,ENE,5.8,-,N/A,,Clear,60,2013-10-29 12:55:00
9:15 AM,35.6,32.0,87,30.40,10.0,ENE,4.6,-,N/A,,Clear,60,2013-10-29 13:15:00
9:35 AM,37.4,32.0,81,30.41,10.0,ENE,6.9,-,N/A,,Clear,70,2013-10-29 13:35:00
9:55 AM,39.2,33.8,81,30.40,10.0,East,6.9,-,N/A,,Clear,80,2013-10-29 13:55:00
10:15 AM,41.0,33.8,76,30.40,10.0,East,8.1,-,N/A,,Clear,80,2013-10-29 14:15:00
10:35 AM,42.8,33.8,70,30.40,10.0,East,8.1,-,N/A,,Clear,80,2013-10-29 14:35:00
10:55 AM,44.6,35.6,71,30.40,10.0,East,6.9,-,N/A,,Clear,80,2013-10-29 14:55:00
11:15 AM,46.4,35.6,66,30.40,10.0,East,6.9,-,N/A,,Clear,90,2013-10-29 15:15:00
11:35 AM,48.2,35.6,62,30.39,10.0,East,8.1,-,N/A,,Clear,90,2013-10-29 15:35:00
11:55 AM,50.0,35.6,58,30.37,10.0,East,9.2,-,N/A,,Clear,100,2013-10-29 15:55:00
12:15 PM,50.0,35.6,58,30.38,10.0,East,6.9,-,N/A,,Clear,90,2013-10-29 16:15:00
12:35 PM,50.0,35.6,58,30.38,10.0,ESE,5.8,-,N/A,,Clear,120,2013-10-29 16:35:00
12:55 PM,50.0,35.6,58,30.37,10.0,ESE,4.6,-,N/A,,Clear,110,2013-10-29 16:55:00
1:15 PM,51.8,37.4,58,30.36,10.0,ESE,6.9,-,N/A,,Clear,110,2013-10-29 17:15:00
1:35 PM,51.8,37.4,58,30.33,10.0,East,6.9,-,N/A,,Clear,90,2013-10-29 17:35:00
1:55 PM,51.8,35.6,54,30.33,10.0,ESE,4.6,-,N/A,,Clear,110,2013-10-29 17:55:00
2:15 PM,53.6,37.4,54,30.32,10.0,East,4.6,-,N/A,,Clear,100,2013-10-29 18:15:00
2:35 PM,53.6,37.4,54,30.31,10.0,SSE,4.6,-,N/A,,Clear,160,2013-10-29 18:35:00
2:55 PM,53.6,35.6,51,30.30,10.0,ESE,4.6,-,N/A,,Clear,120,2013-10-29 18:55:00
3:15 PM,53.6,35.6,51,30.30,10.0,ESE,3.5,-,N/A,,Clear,110,2013-10-29 19:15:00
3:35 PM,53.6,35.6,51,30.29,10.0,East,4.6,-,N/A,,Clear,100,2013-10-29 19:35:00
3:55 PM,53.6,35.6,51,30.28,10.0,SE,4.6,-,N/A,,Clear,130,2013-10-29 19:55:00
4:15 PM,53.6,35.6,51,30.28,10.0,SE,3.5,-,N/A,,Clear,130,2013-10-29 20:15:00
4:35 PM,53.6,35.6,51,30.27,10.0,ESE,4.6,-,N/A,,Clear,110,2013-10-29 20:35:00
4:55 PM,53.6,35.6,51,30.27,10.0,Calm,Calm,-,N/A,,Clear,0,2013-10-29 20:55:00
5:15 PM,53.6,35.6,51,30.27,10.0,ESE,4.6,-,N/A,,Clear,110,2013-10-29 21:15:00
5:35 PM,53.6,37.4,54,30.27,10.0,Calm,Calm,-,N/A,,Clear,0,2013-10-29 21:35:00
5:55 PM,51.8,37.4,58,30.27,10.0,Calm,Calm,-,N/A,,Clear,0,2013-10-29 21:55:00
6:15 PM,48.2,37.4,66,30.26,7.0,Calm,Calm,-,N/A,,Clear,0,2013-10-29 22:15:00
6:35 PM,46.4,37.4,71,30.26,10.0,Calm,Calm,-,N/A,,Clear,0,2013-10-29 22:35:00
6:55 PM,44.6,37.4,76,30.26,10.0,Calm,Calm,-,N/A,,Clear,0,2013-10-29 22:55:00
7:15 PM,44.6,37.4,76,30.25,10.0,East,3.5,-,N/A,,Clear,100,2013-10-29 23:15:00
7:35 PM,44.6,35.6,71,30.25,10.0,Calm,Calm,-,N/A,,Clear,0,2013-10-29 23:35:00
7:55 PM,44.6,35.6,71,30.25,10.0,Calm,Calm,-,N/A,,Clear,0,2013-10-29 23:55:00
8:15 PM,44.6,35.6,71,30.26,10.0,Calm,Calm,-,N/A,,Clear,0,2013-10-30 00:15:00
8:35 PM,46.4,37.4,71,30.25,10.0,East,4.6,-,N/A,,Clear,100,2013-10-30 00:35:00
8:55 PM,46.4,35.6,66,30.24,10.0,East,5.8,-,N/A,,Clear,100,2013-10-30 00:55:00
9:15 PM,48.2,35.6,62,30.23,10.0,ESE,4.6,-,N/A,,Clear,110,2013-10-30 01:15:00
9:35 PM,48.2,35.6,62,30.23,10.0,East,3.5,-,N/A,,Clear,100,2013-10-30 01:35:00
9:55 PM,46.4,37.4,71,30.23,10.0,East,3.5,-,N/A,,Scattered Clouds,80,2013-10-30 01:55:00
10:15 PM,46.4,37.4,71,30.23,10.0,East,5.8,-,N/A,,Mostly Cloudy,80,2013-10-30 02:15:00
10:35 PM,46.4,37.4,71,30.23,10.0,East,5.8,-,N/A,,Mostly Cloudy,90,2013-10-30 02:35:00
10:55 PM,46.4,37.4,71,30.24,10.0,East,5.8,-,N/A,,Overcast,90,2013-10-30 02:55:00
11:15 PM,46.4,37.4,71,30.23,10.0,East,5.8,-,N/A,,Mostly Cloudy,100,2013-10-30 03:15:00
11:35 PM,46.4,37.4,71,30.23,10.0,East,5.8,-,N/A,,Mostly Cloudy,100,2013-10-30 03:35:00
11:55 PM,44.6,39.2,81,30.23,10.0,East,3.5,-,N/A,,Overcast,90,2013-10-30 03:55:00